• In Latvia
  • List of Countries
  • For 7 days
  • Water Temperature
  • Satellite Maps
  • Weather Map
  • Weather Widgets
  • user-avatar
    Login

    Hourly Weather Jewłach

    Today, 8 December, Thursday

    Time Temperature Precipitation Wind Pressure Humidity
    00:00 +1°C° 0 mm 4 mps 766 mmHg 46%
    01:00 +1°C° 0 mm 4 mps 767 mmHg 47%
    02:00 +1°C° 0 mm 4 mps 767 mmHg 47%
    03:00 +1°C° 0 mm 4 mps 768 mmHg 48%
    04:00 0°C° 0 mm 4 mps 769 mmHg 49%
    05:00 0°C° 0 mm 4 mps 769 mmHg 50%
    06:00 0°C° 0 mm 4 mps 770 mmHg 51%
    07:00 0°C° 0 mm 5 mps 771 mmHg 50%
    08:00 +1°C° 0 mm 5 mps 772 mmHg 49%
    09:00 +1°C° 0 mm 6 mps 773 mmHg 47%
    10:00 +2°C° 0 mm 6 mps 773 mmHg 44%
    11:00 +2°C° 0 mm 6 mps 773 mmHg 42%
    12:00 +3°C° 0 mm 6 mps 773 mmHg 39%
    13:00 +3°C° 0 mm 5 mps 773 mmHg 39%
    14:00 +3°C° 0 mm 5 mps 773 mmHg 40%
    15:00 +4°C° 0 mm 4 mps 773 mmHg 40%
    16:00 +2°C° 0 mm 3 mps 773 mmHg 47%
    17:00 +2°C° 0 mm 2 mps 774 mmHg 53%
    18:00 -1°C° 0 mm 2 mps 774 mmHg 59%
    19:00 -1°C° 0 mm 2 mps 774 mmHg 62%
    20:00 -2°C° 0 mm 2 mps 774 mmHg 66%
    21:00 -2°C° 0 mm 2 mps 774 mmHg 69%
    22:00 0°C° 0 mm 1 mps 774 mmHg 73%
    23:00 -1°C° 0 mm 1 mps 774 mmHg 77%

    Tomorrow, 9 December, Friday

    Time Temperature Precipitation Wind Pressure Humidity
    00:00 -1°C° 0 mm 1 mps 773 mmHg 81%
    01:00 -1°C° 0 mm 1 mps 773 mmHg 80%
    02:00 -1°C° 0 mm 1 mps 772 mmHg 80%
    03:00 -1°C° 0 mm 1 mps 772 mmHg 79%
    04:00 -1°C° 0 mm 1 mps 771 mmHg 76%
    05:00 -1°C° 0 mm 1 mps 771 mmHg 72%
    06:00 -3°C° 0 mm 2 mps 770 mmHg 69%
    07:00 -2°C° 0 mm 2 mps 769 mmHg 62%
    08:00 -1°C° 0 mm 3 mps 769 mmHg 54%
    09:00 +1°C° 0 mm 3 mps 768 mmHg 47%
    10:00 +1°C° 0 mm 4 mps 767 mmHg 43%
    11:00 +2°C° 0 mm 5 mps 766 mmHg 39%
    12:00 +3°C° 0 mm 6 mps 765 mmHg 35%
    13:00 +3°C° 0 mm 6 mps 765 mmHg 36%
    14:00 +3°C° 0 mm 5 mps 764 mmHg 37%
    15:00 +3°C° 0 mm 5 mps 764 mmHg 38%
    16:00 +2°C° 0 mm 5 mps 764 mmHg 41%
    17:00 +1°C° 0 mm 4 mps 764 mmHg 44%
    18:00 +1°C° 0 mm 3 mps 764 mmHg 47%
    19:00 0°C° 0 mm 3 mps 764 mmHg 48%
    20:00 0°C° 0 mm 3 mps 764 mmHg 49%
    21:00 0°C° 0 mm 3 mps 763 mmHg 50%
    22:00 0°C° 0 mm 3 mps 763 mmHg 51%
    23:00 0°C° 0 mm 3 mps 763 mmHg 51%

    Day after tomorrow, 10 December, Saturday

    Time Temperature Precipitation Wind Pressure Humidity
    00:00 0°C° 0 mm 3 mps 763 mmHg 51%
    01:00 0°C° 0 mm 4 mps 762 mmHg 52%
    02:00 0°C° 0 mm 4 mps 762 mmHg 53%
    03:00 0°C° 0 mm 4 mps 761 mmHg 53%
    04:00 0°C° 0 mm 4 mps 761 mmHg 54%
    05:00 0°C° 0 mm 5 mps 761 mmHg 55%
    06:00 0°C° 0 mm 5 mps 761 mmHg 56%
    07:00 +1°C° 0 mm 5 mps 761 mmHg 54%
    08:00 +2°C° 0 mm 5 mps 761 mmHg 51%
    09:00 +5°C° 0 mm 5 mps 761 mmHg 49%
    10:00 +5°C° 0 mm 6 mps 760 mmHg 47%
    11:00 +7°C° 0 mm 6 mps 759 mmHg 44%
    12:00 +9°C° 0 mm 6 mps 759 mmHg 42%
    13:00 +9°C° 0 mm 6 mps 759 mmHg 43%
    14:00 +9°C° 0 mm 5 mps 759 mmHg 43%
    15:00 +10°C° 0 mm 4 mps 759 mmHg 44%
    16:00 +8°C° 0 mm 4 mps 759 mmHg 47%
    17:00 +7°C° 0 mm 4 mps 759 mmHg 49%
    18:00 +5°C° 0 mm 4 mps 760 mmHg 52%
    19:00 +5°C° 0 mm 4 mps 760 mmHg 52%
    20:00 +5°C° 0 mm 4 mps 760 mmHg 52%
    21:00 +5°C° 0 mm 4 mps 760 mmHg 53%
    22:00 +5°C° 0 mm 4 mps 760 mmHg 53%
    23:00 +5°C° 0 mm 4 mps 760 mmHg 53%

    11 December, Sunday

    Time Temperature Precipitation Wind Pressure Humidity
    00:00 +5°C° 0 mm 4 mps 760 mmHg 54%
    01:00 +5°C° 0 mm 4 mps 760 mmHg 55%
    02:00 +4°C° 0 mm 4 mps 760 mmHg 56%
    03:00 +4°C° 0 mm 4 mps 760 mmHg 57%
    04:00 +4°C° 0 mm 4 mps 760 mmHg 58%
    05:00 +4°C° 0 mm 4 mps 760 mmHg 59%
    06:00 +3°C° 0 mm 4 mps 760 mmHg 59%
    07:00 +5°C° 0 mm 4 mps 760 mmHg 56%
    08:00 +6°C° 0 mm 4 mps 760 mmHg 53%
    09:00 +7°C° 0 mm 4 mps 761 mmHg 50%
    10:00 +8°C° 0 mm 5 mps 760 mmHg 47%
    11:00 +9°C° 0 mm 5 mps 759 mmHg 45%
    12:00 +10°C° 0 mm 6 mps 759 mmHg 42%
    13:00 +10°C° 0 mm 6 mps 758 mmHg 44%
    14:00 +9°C° 0 mm 6 mps 758 mmHg 45%
    15:00 +9°C° 0 mm 6 mps 757 mmHg 46%
    16:00 +8°C° 0 mm 6 mps 758 mmHg 49%
    17:00 +7°C° 0 mm 6 mps 758 mmHg 52%
    18:00 +5°C° 0 mm 6 mps 758 mmHg 55%
    19:00 +5°C° 0 mm 6 mps 758 mmHg 55%
    20:00 +5°C° 0 mm 6 mps 759 mmHg 55%
    21:00 +5°C° 0 mm 6 mps 759 mmHg 54%
    22:00 +5°C° 0 mm 6 mps 759 mmHg 54%
    23:00 +6°C° 0 mm 5 mps 759 mmHg 54%

    12 December, Monday

    Time Temperature Precipitation Wind Pressure Humidity
    00:00 +5°C° 0 mm 5 mps 760 mmHg 54%
    01:00 +5°C° 0 mm 5 mps 760 mmHg 55%
    02:00 +5°C° 0 mm 5 mps 760 mmHg 56%
    03:00 +5°C° 0 mm 4 mps 760 mmHg 57%
    04:00 +5°C° 0 mm 4 mps 761 mmHg 58%
    05:00 +4°C° 0 mm 4 mps 761 mmHg 58%
    06:00 +4°C° 0 mm 4 mps 761 mmHg 59%
    07:00 +5°C° 0 mm 3 mps 761 mmHg 56%
    08:00 +7°C° 0 mm 3 mps 762 mmHg 53%
    09:00 +9°C° 0 mm 3 mps 762 mmHg 50%
    10:00 +10°C° 0 mm 3 mps 761 mmHg 47%
    11:00 +11°C° 0 mm 3 mps 760 mmHg 44%
    12:00 +13°C° 0 mm 3 mps 760 mmHg 41%
    13:00 +13°C° 0 mm 3 mps 759 mmHg 42%
    14:00 +12°C° 0 mm 3 mps 759 mmHg 43%
    15:00 +12°C° 0 mm 3 mps 758 mmHg 44%
    16:00 +11°C° 0 mm 3 mps 758 mmHg 50%
    17:00 +9°C° 0 mm 3 mps 758 mmHg 55%
    18:00 +8°C° 0 mm 3 mps 758 mmHg 60%
    19:00 +7°C° 0 mm 3 mps 758 mmHg 60%
    20:00 +7°C° 0 mm 3 mps 757 mmHg 60%
    21:00 +7°C° 0 mm 3 mps 757 mmHg 61%
    22:00 +7°C° 0 mm 3 mps 756 mmHg 60%
    23:00 +7°C° 0 mm 3 mps 756 mmHg 60%

    13 December, Tuesday

    Time Temperature Precipitation Wind Pressure Humidity
    00:00 +7°C° 0 mm 3 mps 755 mmHg 59%
    01:00 +7°C° 0 mm 3 mps 755 mmHg 59%
    02:00 +6°C° 0 mm 4 mps 755 mmHg 58%
    03:00 +6°C° 0 mm 4 mps 754 mmHg 58%
    04:00 +6°C° 0 mm 4 mps 754 mmHg 58%
    05:00 +7°C° 0 mm 4 mps 754 mmHg 58%
    06:00 +7°C° 0 mm 4 mps 754 mmHg 58%
    07:00 +7°C° 0 mm 4 mps 754 mmHg 56%
    08:00 +8°C° 0 mm 4 mps 754 mmHg 55%
    09:00 +10°C° 0 mm 4 mps 754 mmHg 53%
    10:00 +11°C° 0 mm 4 mps 754 mmHg 50%
    11:00 +12°C° 0 mm 4 mps 753 mmHg 47%
    12:00 +13°C° 0 mm 4 mps 753 mmHg 43%
    13:00 +13°C° 0 mm 4 mps 753 mmHg 44%
    14:00 +13°C° 0 mm 3 mps 753 mmHg 46%
    15:00 +13°C° 0 mm 2 mps 753 mmHg 47%
    16:00 +12°C° 0 mm 2 mps 753 mmHg 50%
    17:00 +10°C° 0 mm 2 mps 753 mmHg 54%
    18:00 +10°C° 0 mm 1 mps 754 mmHg 57%
    19:00 +9°C° 0 mm 1 mps 754 mmHg 58%
    20:00 +9°C° 0 mm 1 mps 754 mmHg 59%
    21:00 +9°C° 0 mm 1 mps 754 mmHg 60%
    22:00 +9°C° 0.1 mm 1 mps 754 mmHg 62%
    23:00 +8°C° 0.1 mm 1 mps 754 mmHg 64%
    Show more